TimeEDT,TemperatureF,Dew PointF,Humidity,Sea Level PressureIn,VisibilityMPH,Wind Direction,Wind SpeedMPH,Gust SpeedMPH,PrecipitationIn,Events,Conditions,WindDirDegrees,DateUTC
12:58 AM,72.3,64.2,76,30.19,10.0,North,5.8,-,N/A,,Clear,350,2013-10-29 04:58:00
1:58 AM,72.0,65.5,80,30.19,10.0,NNW,6.9,-,N/A,,Clear,330,2013-10-29 05:58:00
2:58 AM,71.2,64.2,78,30.17,10.0,North,6.9,-,N/A,,Clear,350,2013-10-29 06:58:00
3:58 AM,71.2,65.1,81,30.17,10.0,NNW,9.2,-,N/A,,Clear,330,2013-10-29 07:58:00
4:58 AM,71.1,64.9,81,30.17,10.0,NNW,9.2,-,N/A,,Clear,340,2013-10-29 08:58:00
5:58 AM,70.9,64.9,81,30.19,10.0,NNW,8.1,-,N/A,,Clear,330,2013-10-29 09:58:00
6:58 AM,70.3,64.8,82,30.19,10.0,NNW,8.1,-,N/A,,Clear,330,2013-10-29 10:58:00
7:58 AM,70.0,65.1,85,30.21,10.0,NNW,6.9,-,N/A,,Clear,340,2013-10-29 11:58:00
8:58 AM,72.5,66.0,80,30.22,10.0,NNW,8.1,-,N/A,,Clear,340,2013-10-29 12:58:00
9:58 AM,78.3,65.8,65,30.24,10.0,NNW,5.8,-,N/A,,Clear,340,2013-10-29 13:58:00
10:58 AM,81.5,65.3,58,30.24,10.0,NNE,15.0,-,N/A,,Clear,20,2013-10-29 14:58:00
11:58 AM,82.8,64.6,54,30.24,10.0,NE,12.7,-,N/A,,Clear,40,2013-10-29 15:58:00
12:58 PM,83.7,64.0,51,30.22,10.0,ENE,11.5,-,N/A,,Clear,60,2013-10-29 16:58:00
1:58 PM,83.3,65.3,54,30.19,10.0,NE,12.7,-,N/A,,Clear,40,2013-10-29 17:58:00
2:58 PM,83.3,63.1,50,30.17,10.0,NE,12.7,-,N/A,,Clear,50,2013-10-29 18:58:00
3:58 PM,81.9,65.3,57,30.17,10.0,NE,11.5,-,N/A,,Partly Cloudy,50,2013-10-29 19:58:00
4:58 PM,81.3,64.6,57,30.17,10.0,NE,12.7,-,N/A,,Partly Cloudy,40,2013-10-29 20:58:00
5:58 PM,79.5,66.0,63,30.19,10.0,NE,13.8,-,N/A,,Clear,40,2013-10-29 21:58:00
6:58 PM,78.1,64.4,63,30.19,10.0,NNE,10.4,-,N/A,,Clear,30,2013-10-29 22:58:00
7:58 PM,78.1,64.6,63,30.21,10.0,NE,11.5,-,N/A,,Scattered Clouds,50,2013-10-29 23:58:00
8:58 PM,77.9,65.5,65,30.22,10.0,ENE,10.4,-,N/A,,Clear,60,2013-10-30 00:58:00
9:58 PM,77.7,65.5,66,30.22,10.0,NE,10.4,-,N/A,,Clear,50,2013-10-30 01:58:00
10:58 PM,77.5,66.7,69,30.22,10.0,NE,9.2,-,N/A,,Scattered Clouds,50,2013-10-30 02:58:00
11:29 PM,77.0,66.2,69,30.21,10.0,East,8.1,-,N/A,Rain,Light Rain,80,2013-10-30 03:29:00
11:44 PM,77.0,66.2,69,30.20,10.0,East,10.4,-,N/A,,Overcast,80,2013-10-30 03:44:00
11:58 PM,77.0,67.5,72,30.22,10.0,East,11.5,-,0.00,,Overcast,80,2013-10-30 03:58:00